Current weather by "City, St" or "zip code"  
 

Current Conditions: MURRAY KYLE-OAK

Cloudy


71.6 F

Last Updated on Jun 17 2024, 10:35 PM CDT
Humidity: 100%
Wind Speed: 0.0 mph
Barometer 30.06 in
Dewpoint: 71.6 F
Visibility: 10.00 mi
Precip: --
Heat Index: 73.2 F
Wind Chill: NA
Current conditions at:

MURRAY KYLE-OAK (KCEY)

Lat: 36.65 Lon: 88.36

active severe weather and emergency alerts image image weather storm and storm spotter reports image weather observation monitoring service image
Active
Alerts
Storm Reports Obs
Monitoring

Sign-up For Email & Text Message Weather Alert Notification Services



Advertise Here

Observation History for MURRAY KYLE-OAK


Time Wind
(mph)
Vis
(mi)
Weather Precip (in) Temperature (F) Relative
Humidity
Wind
Chill
(F)
Heat
Index
(F)
Pressure
Air Dwpt altimeter
(in)
sea level
(mb)
Rmks
10:35 PM CDT 0.0 10.00 Cloudy -- 71.6 71.6 100% NA 73.2 30.06 1018.0
09:35 PM CDT SW 3.4 9.00 Cloudy -- 71.6 71.6 100% NA 73.2 30.05 1017.6
09:15 PM CDT S 4.7 8.00 Mostly Cloudy -- 71.6 71.6 100% NA 73.2 30.06 1018.0
08:55 PM CDT 6.9 10.00 Partly Cloudy -- 73.4 73.4 100% NA 75.2 30.05 1017.6
07:35 PM CDT 0.0 10.00 Clear -- 73.4 73.4 100% NA 75.2 30.02 1016.6
06:55 PM CDT S 5.8 1.75 Fog/Mist -- 75.2 75.2 100% NA 77.2 30.04 1017.3
05:55 PM CDT 0.0 10.00 Clear -- 77.0 75.2 94% NA 78.8 30.02 1016.6
05:35 PM CDT 0.0 10.00 Clear -- 77.0 73.4 89% NA 78.6 30.02 1016.6
04:15 PM CDT SW 13.9 9.00 Cloudy -- 73.4 73.4 100% NA 75.2 30.05 1017.6
03:55 PM CDT 10.00 Mostly Cloudy -- 77.0 75.2 94% NA 78.8 30.04 1017.3
03:35 PM CDT 5.8 10.00 Clear -- 80.6 78.8 94% NA 88.2 30.04 1017.3
02:55 PM CDT 5.8 10.00 Mostly Cloudy -- 82.4 78.8 89% NA 92.5 30.04 1017.3
02:35 PM CDT 6.9 10.00 Partly Cloudy -- 84.2 78.8 84% NA 96.1 30.05 1017.6
02:15 PM CDT 4.7 10.00 Mostly Cloudy -- 82.4 77.0 84% NA 90.9 30.06 1018.0
01:55 PM CDT 4.7 10.00 Mostly Cloudy -- 82.4 77.0 84% NA 90.9 30.06 1018.0
01:15 PM CDT 4.7 10.00 Partly Cloudy -- 84.2 77.0 79% NA 94.1 30.05 1017.6
11:35 AM CDT 10.3 10.00 Mostly Cloudy -- 82.4 77.0 84% NA 90.9 30.07 1018.3
11:15 AM CDT 10.00 Cloudy -- NULL % NA NA M
08:35 AM CDT 8.1 10.00 Clear -- 82.4 77.0 84% NA 90.9 30.06 1018.0
08:15 AM CDT 10.00 Clear -- NULL % NA NA M
07:15 AM CDT 10.3 10.00 Clear -- 77.0 77.0 100% NA 79.2 30.05 1017.6
06:35 AM CDT SE 4.7 10.00 Clear -- NULL % NA NA 30.04 1017.3
06:15 AM CDT 10.00 Mostly Clear -- NULL % NA NA M
05:55 AM CDT 0.0 10.00 Partly Cloudy -- 75.2 75.2 100% NA 77.2 30.05 1017.6

Regional Weather Observation


MURRAY KYLE-OAK (KCEY)

Cloudy
71.6 F

PADUCAH (KPAH)

Light Rain
75.0 F

UNION CITY (KUCY)

Mostly Cloudy
73.4 F

PARIS HENRY CTY (KPHT)

Partly Cloudy
82.4 F

CAIRO (KCIR)

Partly Cloudy
75.2 F

HOPKINSVILLE (KHOP)

Clear
73.4 F

Advertise Here


Advertise Here